ニート-リニア彗星

P/2002 T6 ( NEAT-LINEAR )

English version
Home page
Updated on September 29, 2004

---------------------------------------------------------------------

・ プロフィール

発見日 2002年10月4日, 10月7日
発見光度 20.1等, 19.4等
発見者 Near-Earth-Asteroid Tracking Team (Jet Propulsion Laboratory), Lincoln Laboratory Near-Earth Asteroid Research project

・ 写真集

・ 軌道要素

Epoch 2003 June 10.0 TT = JDT 2452800.5
T 2003 June 27.00486 TT                                 MPC
q   3.3870767            (2000.0)            P               Q
n   0.04657329     Peri.  217.57066     +0.40232477     -0.91078988
a   7.6508812      Node   209.04628     +0.87944782     +0.41263531
e   0.5572959      Incl.   11.00925     +0.25437434     +0.01392476
P  21.16
>From 171 observations 2002 Sept. 15-2003 Aug. 31, mean residual 0".59.

・ 星図

・ 光度変化

        m1 = -7 + 5 logΔ + 38.5 log r(t - 117)

---------------------------------------------------------------------

軌道要素はM.P.E.C. 2003-R05に掲載されたものです。
星図は StellaNavigator Ver.2.0 for Windows (アストロアーツ 編著 / アスキー出版局刊) で作成したものです。
光度グラフはComet for Windowsで作成したものです。

---------------------------------------------------------------------

Copyright(C) Seiichi Yoshida (comet@aerith.net). All rights reserved.